Regional Weather Roundup
Issued by NWS Midland/Odessa, TX

Skip options and go directly to product.
Home | Oldest Version | Previous Version | Current Version | All | Text Only | Save Text | Print | Product List | Glossary On

Skip product version selection by date and time.   
026
ASUS44 KMAF 211810
RWRMAF
MIDLAND AREA WEATHER ROUNDUP
NATIONAL WEATHER SERVICE MIDLAND TX
100 PM CDT TUE OCT 21 2014

...IN SOUTHWEST TEXAS AND SOUTHEAST NEW MEXICO...

CITY           SKY/WX    TMP DP  RH WIND       PRES   REMARKS
ALPINE         CLOUDY    60  57  88 N5        30.19F
ANDREWS        CLOUDY    69  56  62 S10G20    30.12F
ARTESIA        NOT AVBL
BIG SPRING     MOSUNNY   74  58  56 S7        30.13F
CARLSBAD       PTSUNNY   68  59  73 SE6       30.10F
DRYDEN           N/A     67  65  93 E10       30.08S
FORT STOCKTON  CLOUDY    67  61  81 SE15      30.10F
GUAD PASS      PTSUNNY   62  51  67 E14       30.18F
HOBBS          PTSUNNY   66  59  77 SE14      30.14F
MARFA          CLOUDY    59  55  88 CALM      30.18S
MIDLAND AIRPK  MOSUNNY   74  55  51 S8        30.11F
MIDLAND INTL   PTSUNNY   73  57  57 S16       30.10F
ODESSA         PTSUNNY   71  57  61 S13       30.12F
PECOS          CLOUDY    67  61  81 E13       30.09S
PRESIDIO       CLOUDY    67  62  83 W9        30.07
SEMINOLE       MOSUNNY   70  56  61 S8        30.13F
SNYDER         PTSUNNY   71  58  61 CALM      30.12F
WINK           CLOUDY    68  60  75 SE13      30.09F
$$
...OTHER STATIONS IN TEXAS...

CITY           SKY/WX    TMP DP  RH WIND       PRES   REMARKS
ABILENE        MOSUNNY   79  53  40 S10       30.10F
AMARILLO       PTSUNNY   73  53  49 S9        30.12F
AUSTIN         MOSUNNY   78  59  51 NE12      30.06F
BROWNSVILLE    CLOUDY    87  70  56 E14       29.92F
CORPUS CHRISTI PTSUNNY   82  69  64 NE14      29.99F
DALLAS FTW     MOSUNNY   79  56  45 E7        30.08F
DEL RIO        PTSUNNY   78  62  57 E13       30.03F
EL PASO        MOSUNNY   67  53  61 VRB3      30.08F
HOUSTON INT    SUNNY     79  55  43 E12       30.05F
LUBBOCK        PTSUNNY   73  54  51 SE7       30.12F
SAN ANGELO     PTSUNNY   77  55  46 E10       30.09F
SAN ANTONIO    MOSUNNY   81  54  39 E8        30.05F
WACO           SUNNY     78  57  48 CALM      30.09F
WICHITA FALLS  NOT AVBL
$$
...OTHER LOCATIONS IN NEW MEXICO...

CITY           SKY/WX    TMP DP  RH WIND       PRES   REMARKS
ALAMAGORDO     NOT AVBL
ALBUQUERQUE    PTSUNNY   62  46  55 SW6       30.17F
CANNON AFB     SUNNY     69  51  53 SW8       30.14F
CLOVIS         NOT AVBL
HOLLOMAN AFB   MOSUNNY   65  54  68 CALM      30.10F
ROSWELL        CLOUDY    63  58  83 SW7       30.12F
RUIDOSO        CLOUDY    52  48  87 SE3       30.25S
SANTA FE       PTSUNNY   59  46  62 S5        30.18F
TRUTH OR CONSE PTSUNNY   62  50  64 NW3       30.14F
TUCUMCARI      CLOUDY    71  50  47 SW12      30.11F
$$

USA.gov is the U.S. government's official web portal to all federal, state and local government web resources and services.